サイディング・スプリング彗星

P/2006 HR30 ( Siding Spring )

English version
Home page
Updated on July 12, 2026

---------------------------------------------------------------------

・ プロフィール

発見日 2006年4月20日
発見光度 18.7等
発見者 Siding Spring Survey

・ 写真集

・ 軌道要素

                    Epoch = 2007 Jan. 20.0 TT
     T = 2007 Jan.  2.28119 TT        Peri. = 117.41382
     e = 0.8431412                    Node  = 309.95124 2000.0
     q = 1.2264311 AU                 Incl. =  31.88456
       a =  7.8186946 AU   n = 0.04508195   P =  21.86 years

・ 星図

・ 光度変化

        H = 11.9  G = 0.15

---------------------------------------------------------------------

軌道要素は、CBET 5708に掲載されたものです。
星図は StellaNavigator Ver.2.0 for Windows (アストロアーツ 編著 / アスキー出版局刊) で作成したものです。
光度グラフはComet for Windowsで作成したものです。

---------------------------------------------------------------------

Copyright(C) Seiichi Yoshida (comet@aerith.net). All rights reserved.